This is the latest recevied weather packets stored in our database for station/object JH5HTX-13. If no packets are shown the sender has not sent any weather packets the latest 10 day(s).
| Time | Temp. | Humidity | Pressure | Rain* | Wind** | Luminosity | Snow |
|---|---|---|---|---|---|---|---|
| 1777853548 | 17.78° C | 68% | 1007.5 hPa | 0 mm | - | - | - |
| 1777852648 | 17.78° C | 67% | 1007.5 hPa | 0 mm | - | - | - |
| 1777851748 | 17.78° C | 68% | 1007.2 hPa | 0 mm | - | - | - |
| 1777850848 | 17.78° C | 68% | 1007.1 hPa | 0 mm | - | - | - |
| 1777849948 | 17.78° C | 69% | 1006.9 hPa | 0 mm | - | - | - |
| 1777849048 | 17.78° C | 70% | 1006.5 hPa | 0 mm | - | - | - |
| 1777848148 | 17.78° C | 70% | 1006.4 hPa | 0 mm | - | - | - |
| 1777847247 | 17.22° C | 73% | 1006.5 hPa | 0 mm | - | - | - |
| 1777846347 | 17.22° C | 74% | 1005.9 hPa | 0 mm | - | - | - |
| 1777845447 | 17.22° C | 74% | 1005.8 hPa | 0 mm | - | - | - |
| 1777844547 | 17.22° C | 75% | 1005.9 hPa | 0 mm | - | - | - |
| 1777843647 | 17.22° C | 76% | 1005.6 hPa | 0 mm | - | - | - |
| 1777842747 | 16.67° C | 77% | 1005.5 hPa | 0 mm | - | - | - |
| 1777841847 | 16.67° C | 76% | 1004.6 hPa | 0 mm | - | - | - |
| 1777840947 | 16.67° C | 76% | 1004.5 hPa | 0 mm | - | - | - |
| 1777840047 | 16.67° C | 78% | 1004.4 hPa | 0 mm | - | - | - |
| 1777839147 | 16.67° C | 78% | 1004.3 hPa | 0 mm | - | - | - |
| 1777838246 | 17.22° C | 76% | 1004.1 hPa | 0 mm | - | - | - |
| 1777837346 | 17.22° C | 75% | 1004.2 hPa | 0 mm | - | - | - |
| 1777836446 | 16.67° C | 76% | 1003.9 hPa | 0 mm | - | - | - |
| 1777835546 | 16.67° C | 78% | 1003.8 hPa | 0 mm | - | - | - |
| 1777834646 | 16.67° C | 81% | 1003.6 hPa | 0 mm | - | - | - |
| 1777833746 | 16.67° C | 83% | 1003.5 hPa | 0 mm | - | - | - |
| 1777832846 | 16.67° C | 85% | 1003.6 hPa | 0 mm | - | - | - |
| 1777831946 | 16.67° C | 87% | 1003.4 hPa | 0 mm | - | - | - |
* Rain latest hour (hover to see other rain measurements)
** Current wind speed in m/s (hover to see current wind gust speed)